When you browse on this site, cookies collect data to enhance your experience and personalize the content and advertising you see.
Visit our Privacy Policy to learn more. By continuing to use the site, you agree to this use of cookies and data.
  • In Hungary
  • List of Countries
  • For 7 days
  • Water Temperature
  • Satellite Maps
  • Weather Map
  • News
  • Weather Widgets
  • user-avatar
    Login

    Hourly Weather Potereba

    Today, 23 July, Tuesday

    Time Temperature Precipitation Wind Pressure Humidity
    00:00 +17°C° 0 mm 3 mps 741 mmHg 82%
    01:00 +17°C° 0 mm 3 mps 741 mmHg 83%
    02:00 +17°C° 0 mm 2 mps 740 mmHg 88%
    03:00 +16°C° 0.1 mm 2 mps 740 mmHg 89%
    04:00 +16°C° 0.1 mm 2 mps 740 mmHg 91%
    05:00 +15°C° 0.1 mm 2 mps 740 mmHg 93%
    06:00 +17°C° 0 mm 2 mps 740 mmHg 87%
    07:00 +18°C° 0 mm 3 mps 740 mmHg 82%
    08:00 +19°C° 0 mm 3 mps 740 mmHg 77%
    09:00 +20°C° 0 mm 3 mps 740 mmHg 71%
    10:00 +21°C° 0 mm 4 mps 740 mmHg 66%
    11:00 +21°C° 0 mm 5 mps 740 mmHg 61%
    12:00 +22°C° 0 mm 5 mps 740 mmHg 60%
    13:00 +22°C° 0 mm 5 mps 739 mmHg 59%
    14:00 +23°C° 0 mm 5 mps 739 mmHg 57%
    15:00 +23°C° 0 mm 5 mps 739 mmHg 59%
    16:00 +22°C° 0 mm 5 mps 739 mmHg 60%
    17:00 +22°C° 0 mm 5 mps 739 mmHg 62%
    18:00 +21°C° 0 mm 4 mps 739 mmHg 69%
    19:00 +19°C° 0 mm 3 mps 739 mmHg 75%
    20:00 +18°C° 0 mm 3 mps 739 mmHg 82%
    21:00 +17°C° 0 mm 3 mps 739 mmHg 84%
    22:00 +16°C° 0 mm 3 mps 739 mmHg 87%
    23:00 +16°C° 0 mm 3 mps 739 mmHg 89%

    Tomorrow, 24 July, Wednesday

    Time Temperature Precipitation Wind Pressure Humidity
    00:00 +14°C° 0 mm 3 mps 739 mmHg 90%
    01:00 +14°C° 0 mm 3 mps 739 mmHg 91%
    02:00 +14°C° 0 mm 4 mps 739 mmHg 91%
    03:00 +14°C° 0 mm 4 mps 739 mmHg 93%
    04:00 +14°C° 0 mm 4 mps 739 mmHg 95%
    05:00 +13°C° 0 mm 4 mps 739 mmHg 96%
    06:00 +15°C° 0 mm 4 mps 739 mmHg 92%
    07:00 +17°C° 0 mm 4 mps 739 mmHg 88%
    08:00 +17°C° 0 mm 5 mps 739 mmHg 84%
    09:00 +20°C° 0.2 mm 5 mps 739 mmHg 81%
    10:00 +21°C° 0.2 mm 5 mps 739 mmHg 77%
    11:00 +22°C° 0.2 mm 5 mps 739 mmHg 74%
    12:00 +22°C° 0.8 mm 5 mps 739 mmHg 73%
    13:00 +23°C° 0.8 mm 5 mps 739 mmHg 71%
    14:00 +23°C° 0.8 mm 4 mps 738 mmHg 70%
    15:00 +23°C° 0.2 mm 4 mps 739 mmHg 70%
    16:00 +23°C° 0.2 mm 4 mps 739 mmHg 69%
    17:00 +25°C° 0.2 mm 4 mps 739 mmHg 68%
    18:00 +22°C° 0.8 mm 4 mps 739 mmHg 75%
    19:00 +20°C° 0.8 mm 3 mps 739 mmHg 81%
    20:00 +19°C° 0.8 mm 3 mps 739 mmHg 87%
    21:00 +18°C° 0.2 mm 2 mps 739 mmHg 88%
    22:00 +17°C° 0.2 mm 2 mps 739 mmHg 90%
    23:00 +17°C° 0.2 mm 2 mps 740 mmHg 92%

    Day after tomorrow, 25 July, Thursday

    Time Temperature Precipitation Wind Pressure Humidity
    00:00 +16°C° 0 mm 2 mps 739 mmHg 92%
    01:00 +16°C° 0 mm 2 mps 739 mmHg 93%
    02:00 +16°C° 0 mm 2 mps 739 mmHg 93%
    03:00 +15°C° 0 mm 2 mps 740 mmHg 94%
    04:00 +15°C° 0 mm 2 mps 740 mmHg 95%
    05:00 +15°C° 0 mm 2 mps 740 mmHg 95%
    06:00 +16°C° 0 mm 2 mps 740 mmHg 91%
    07:00 +18°C° 0 mm 2 mps 740 mmHg 88%
    08:00 +19°C° 0 mm 2 mps 740 mmHg 84%
    09:00 +21°C° 0 mm 2 mps 740 mmHg 75%
    10:00 +23°C° 0 mm 2 mps 741 mmHg 66%
    11:00 +25°C° 0 mm 2 mps 741 mmHg 58%
    12:00 +25°C° 0 mm 2 mps 740 mmHg 56%
    13:00 +26°C° 0 mm 3 mps 740 mmHg 54%
    14:00 +26°C° 0 mm 3 mps 740 mmHg 52%
    15:00 +26°C° 0 mm 3 mps 739 mmHg 55%
    16:00 +26°C° 0 mm 3 mps 739 mmHg 58%
    17:00 +25°C° 0 mm 3 mps 739 mmHg 61%
    18:00 +24°C° 0.3 mm 2 mps 739 mmHg 69%
    19:00 +21°C° 0.3 mm 2 mps 738 mmHg 77%
    20:00 +19°C° 0.3 mm 2 mps 738 mmHg 85%
    21:00 +18°C° 0.1 mm 2 mps 738 mmHg 87%
    22:00 +18°C° 0.1 mm 2 mps 738 mmHg 88%
    23:00 +17°C° 0.1 mm 2 mps 738 mmHg 90%

    26 July, Friday

    Time Temperature Precipitation Wind Pressure Humidity
    00:00 +17°C° 0.2 mm 2 mps 738 mmHg 92%
    01:00 +17°C° 0.2 mm 2 mps 737 mmHg 93%
    02:00 +16°C° 0.2 mm 2 mps 737 mmHg 94%
    03:00 +16°C° 0 mm 2 mps 737 mmHg 95%
    04:00 +15°C° 0 mm 2 mps 737 mmHg 95%
    05:00 +15°C° 0 mm 2 mps 737 mmHg 96%
    06:00 +16°C° 0 mm 2 mps 737 mmHg 93%
    07:00 +17°C° 0 mm 3 mps 737 mmHg 90%
    08:00 +19°C° 0 mm 3 mps 737 mmHg 87%
    09:00 +20°C° 0 mm 3 mps 737 mmHg 81%
    10:00 +21°C° 0 mm 3 mps 737 mmHg 75%
    11:00 +22°C° 0 mm 3 mps 737 mmHg 69%
    12:00 +22°C° 0.2 mm 3 mps 736 mmHg 68%
    13:00 +22°C° 0.2 mm 3 mps 736 mmHg 66%
    14:00 +24°C° 0.2 mm 2 mps 736 mmHg 65%
    15:00 +23°C° 0.5 mm 2 mps 736 mmHg 67%
    16:00 +23°C° 0.5 mm 2 mps 735 mmHg 69%
    17:00 +23°C° 0.5 mm 2 mps 735 mmHg 72%
    18:00 +21°C° 0.5 mm 2 mps 735 mmHg 78%
    19:00 +19°C° 0.5 mm 2 mps 735 mmHg 84%
    20:00 +18°C° 0.5 mm 2 mps 735 mmHg 90%
    21:00 +17°C° 0 mm 2 mps 735 mmHg 92%
    22:00 +17°C° 0 mm 2 mps 735 mmHg 94%
    23:00 +16°C° 0 mm 2 mps 735 mmHg 96%

    27 July, Saturday

    Time Temperature Precipitation Wind Pressure Humidity
    00:00 +16°C° 0 mm 2 mps 735 mmHg 96%
    01:00 +15°C° 0 mm 2 mps 735 mmHg 96%
    02:00 +15°C° 0 mm 2 mps 734 mmHg 97%
    03:00 +15°C° 0 mm 2 mps 734 mmHg 97%
    04:00 +15°C° 0 mm 2 mps 734 mmHg 97%
    05:00 +15°C° 0 mm 2 mps 734 mmHg 97%
    06:00 +16°C° 0 mm 2 mps 734 mmHg 96%
    07:00 +17°C° 0 mm 3 mps 734 mmHg 94%
    08:00 +18°C° 0 mm 3 mps 734 mmHg 93%
    09:00 +18°C° 0.1 mm 3 mps 734 mmHg 91%
    10:00 +18°C° 0.1 mm 3 mps 734 mmHg 90%
    11:00 +18°C° 0.1 mm 3 mps 734 mmHg 89%
    12:00 +19°C° 0.1 mm 3 mps 734 mmHg 86%
    13:00 +19°C° 0.1 mm 3 mps 734 mmHg 84%
    14:00 +20°C° 0.1 mm 3 mps 734 mmHg 81%
    15:00 +20°C° 0.1 mm 3 mps 733 mmHg 83%
    16:00 +19°C° 0.1 mm 2 mps 733 mmHg 84%
    17:00 +19°C° 0.1 mm 2 mps 733 mmHg 86%
    18:00 +18°C° 0 mm 2 mps 733 mmHg 89%
    19:00 +19°C° 0 mm 1 mps 733 mmHg 92%
    20:00 +18°C° 0 mm 1 mps 733 mmHg 95%
    21:00 +18°C° 0 mm 1 mps 733 mmHg 96%
    22:00 +16°C° 0 mm 1 mps 733 mmHg 96%
    23:00 +16°C° 0 mm 2 mps 733 mmHg 97%

    28 July, Sunday

    Time Temperature Precipitation Wind Pressure Humidity
    00:00 +15°C° 0 mm 2 mps 733 mmHg 97%
    01:00 +15°C° 0 mm 2 mps 733 mmHg 97%
    02:00 +15°C° 0 mm 2 mps 733 mmHg 97%
    03:00 +15°C° 0 mm 2 mps 733 mmHg 97%
    04:00 +14°C° 0 mm 2 mps 733 mmHg 97%
    05:00 +14°C° 0 mm 1 mps 733 mmHg 98%
    06:00 +16°C° 0 mm 2 mps 733 mmHg 94%
    07:00 +18°C° 0 mm 2 mps 733 mmHg 90%
    08:00 +19°C° 0 mm 3 mps 734 mmHg 86%
    09:00 +21°C° 0.1 mm 3 mps 734 mmHg 80%
    10:00 +22°C° 0.1 mm 3 mps 734 mmHg 74%
    11:00 +25°C° 0.1 mm 3 mps 734 mmHg 68%
    12:00 +26°C° 0.3 mm 3 mps 734 mmHg 66%
    13:00 +26°C° 0.3 mm 3 mps 733 mmHg 64%
    14:00 +27°C° 0.3 mm 3 mps 733 mmHg 62%
    15:00 +27°C° 0.1 mm 3 mps 733 mmHg 63%
    16:00 +27°C° 0.1 mm 3 mps 733 mmHg 65%
    17:00 +26°C° 0.1 mm 4 mps 733 mmHg 66%
    18:00 +25°C° 0.2 mm 3 mps 733 mmHg 73%
    19:00 +22°C° 0.2 mm 3 mps 733 mmHg 79%
    20:00 +21°C° 0.2 mm 2 mps 733 mmHg 86%
    21:00 +20°C° 0 mm 2 mps 733 mmHg 88%
    22:00 +19°C° 0 mm 2 mps 733 mmHg 91%
    23:00 +19°C° 0 mm 2 mps 733 mmHg 93%
    Show more